Date,TemperatureHighF,TemperatureAvgF,TemperatureLowF,DewpointHighF,DewpointAvgF,DewpointLowF,HumidityHigh,HumidityAvg,HumidityLow,PressureMaxIn,PressureMinIn,WindSpeedMaxMPH,WindSpeedAvgMPH,GustSpeedMaxMPH,PrecipitationSumIn
2013-3-1,56,49,45,48,46,40,97,89,56,29.83,29.68,41,5,45,0.14
2013-3-2,56,52,45,49,46,43,96,81,69,30.13,29.82,39,12,50,0.00
2013-3-3,58,48,38,50,45,37,98,89,71,30.13,30.00,9,2,13,0.00
2013-3-4,58,54,49,55,52,48,97,93,87,30.00,29.71,20,8,24,0.01
2013-3-5,62,58,56,55,54,53,94,86,74,29.71,29.35,17,9,23,0.02
2013-3-6,64,59,54,56,54,52,96,85,67,29.61,29.31,24,14,33,0.00
2013-3-7,70,60,55,57,54,51,96,81,53,29.75,29.60,24,8,24,0.00
2013-3-8,68,62,55,57,52,45,96,71,45,29.80,29.63,30,13,34,0.00
2013-3-9,68,59,53,54,51,45,98,78,44,29.79,29.72,21,8,29,0.00
2013-3-10,62,57,53,55,50,43,96,78,51,29.75,29.65,32,12,37,0.00
2013-3-11,61,56,51,50,47,44,89,73,53,29.72,29.65,28,10,32,0.00
2013-3-12,61,56,50,48,44,39,88,67,45,29.68,29.56,18,8,24,0.00
2013-3-13,58,47,40,51,44,39,97,89,54,29.65,29.35,40,9,41,0.38
2013-3-14,52,45,39,41,38,29,97,76,44,29.87,29.65,19,8,32,0.05
2013-3-15,54,46,40,40,37,33,91,71,48,30.13,29.86,16,5,20,0.00
2013-3-16,56,46,34,46,40,32,97,80,58,30.13,29.90,12,3,16,0.00
2013-3-17,65,53,41,54,48,40,97,85,50,29.90,29.52,19,5,26,0.02
2013-3-18,62,57,46,55,46,36,96,70,44,29.81,29.49,21,7,30,0.06
2013-3-19,63,55,46,53,49,40,96,83,60,29.81,29.61,12,3,15,0.00
2013-3-20,57,53,46,54,50,43,98,87,71,30.15,29.57,17,6,24,0.00
2013-3-21,63,52,43,53,48,41,97,87,65,30.16,30.00,17,5,19,0.00
2013-3-22,69,56,42,56,50,41,98,83,53,29.99,29.75,14,4,18,0.01
2013-3-23,64,58,53,54,53,48,99,85,58,29.78,29.61,14,5,20,0.02
2013-3-24,63,55,52,53,52,48,97,88,60,29.66,29.53,12,3,13,0.09
2013-3-25,65,57,47,51,47,41,96,73,46,29.77,29.64,23,10,32,0.00
2013-3-26,68,61,56,56,53,50,96,75,55,29.70,29.61,25,9,32,0.03
2013-3-27,66,59,54,56,53,49,97,82,54,29.73,29.59,23,9,30,0.00
2013-3-28,68,60,55,57,54,51,96,82,58,29.89,29.68,22,8,25,0.00
2013-3-29,66,60,54,56,54,52,95,82,65,29.88,29.73,27,9,30,0.00
2013-3-30,68,63,56,54,47,40,92,58,37,29.83,29.63,35,14,41,0.00
2013-3-31,68,62,54,54,45,39,90,56,35,29.82,29.68,16,8,19,0.00